Volver al catálogo

FENGYUN 1C DEB

ActivoSSO
NORAD 29827·DEBRIS·🇨🇳 China

Lanzado May 10, 1999 desde Taiyuan Satellite Launch Center

Loading…

Próximos Pases (próximas 24 horas)

TLE

ActualizadoSource: Space-Track

Época: Sep 14, 2026, 11:28 UTC

1 29827U 99025DV  26257.47784880  .00000349  00000-0  17694-3 0  9997
2 29827  98.6230 247.1776 0024301 240.2445 271.8557 14.22033830 17710

Sigue FENGYUN 1C DEB en tiempo real con AllMySat

Download on the App Store